Russellville, AR

5:46 PM CST on February 12, 2016 (GMT -0600)
Russellville Regional

Weather History for KRUE - April, 2014

Change the Weather History Date:

Friday, April 18, 2014

  Actual Average (KHOT) Record (KHOT)
Temperature  
Mean Temperature 58 °F -  
Max Temperature 75 °F 75 °F 92 °F (1987)
Min Temperature 44 °F 52 °F 33 °F (1999)
Degree Days  
Heating Degree Days 6    
Growing Degree Days 8 (Base 50)    
Moisture  
Dew Point 45 °F    
Average Humidity 64    
Maximum Humidity 93    
Minimum Humidity 34    
Precipitation  
Precipitation 0.00 in - - ()
Sea Level Pressure  
Sea Level Pressure 30.19 in    
Wind  
Wind Speed 1 mph (East)    
Max Wind Speed 6 mph    
Max Gust Speed -    
Visibility 10 miles    
Events      
Averages and records for this station are not official NWS values.
T = Trace of Precipitation, MM = Missing Value Source: NWS Daily Summary

Daily Weather History Graph

Daily Weather History Graph

Search for Another Location

Airport or City:

Trip Planner

Search our weather history database for the weather conditions in past years. The results will help you decide how hot, cold, wet, or windy it might be!

Date:

Astronomy

Apr. 18, 2014 Rise Set
Actual Time 6:36 AM CDT 7:47 PM CDT
Civil Twilight 6:09 AM CDT 8:14 PM CDT
Nautical Twilight 5:38 AM CDT 8:45 PM CDT
Astronomical Twilight 5:06 AM CDT 9:18 PM CDT
Moon 11:28 PM CDT (4/18) 9:03 AM CDT (4/18)
Length of Visible Light 14h 04m
Length of Day
13h 11m
Waning Gibbous, 87% of the Moon is Illuminated
Apr 18
Waning Gibbous
Apr 22
Last Quarter
Apr 29
New
May 6
First Quarter
May 14
Full

Hourly Weather History & Observations

Time (CDT) Temp. Dew Point Humidity Pressure Visibility Wind Dir Wind Speed Gust Speed Precip Events Conditions
12:53 AM 52.0 °F 46.0 °F 80% 30.20 in 10.0 mi Calm Calm - N/A   Clear
1:53 AM 50.0 °F 46.0 °F 86% 30.20 in 10.0 mi Calm Calm - N/A   Partly Cloudy
2:53 AM 48.0 °F 45.0 °F 89% 30.20 in 10.0 mi Calm Calm - N/A   Clear
3:53 AM 46.9 °F 44.1 °F 90% 30.20 in 10.0 mi Calm Calm - N/A   Clear
4:53 AM 46.0 °F 43.0 °F 89% 30.20 in 10.0 mi Calm Calm - N/A   Clear
5:53 AM 45.0 °F 42.1 °F 90% 30.20 in 8.0 mi Calm Calm - N/A   Clear
6:53 AM 44.1 °F 42.1 °F 93% 30.22 in 6.0 mi Calm Calm - N/A   Clear
7:53 AM 50.0 °F 46.0 °F 86% 30.24 in 10.0 mi Calm Calm - N/A   Clear
8:53 AM 55.9 °F 46.9 °F 72% 30.25 in 10.0 mi Calm Calm - N/A   Clear
9:53 AM 64.0 °F 46.9 °F 54% 30.25 in 10.0 mi Calm Calm - N/A   Clear
10:53 AM 66.9 °F 45.0 °F 45% 30.25 in 10.0 mi Calm Calm - N/A   Clear
11:53 AM 70.0 °F 45.0 °F 41% 30.23 in 10.0 mi Variable 3.5 mph - N/A   Clear
12:53 PM 71.1 °F 45.0 °F 39% 30.21 in 10.0 mi Variable 4.6 mph - N/A   Clear
1:53 PM 72.0 °F 43.0 °F 35% 30.20 in 10.0 mi Calm Calm - N/A   Mostly Cloudy
2:53 PM 73.9 °F 45.0 °F 35% 30.18 in 10.0 mi Variable 4.6 mph - N/A   Partly Cloudy
3:53 PM 73.9 °F 44.1 °F 34% 30.15 in 10.0 mi Variable 4.6 mph - N/A   Clear
4:53 PM 73.9 °F 45.0 °F 35% 30.14 in 10.0 mi Variable 5.8 mph - N/A   Clear
5:53 PM 73.9 °F 44.1 °F 34% 30.12 in 10.0 mi East 4.6 mph - N/A   Clear
7:53 PM 63.0 °F 48.0 °F 58% 30.12 in 10.0 mi Calm Calm - N/A   Clear
8:53 PM 57.9 °F 48.0 °F 70% 30.14 in 10.0 mi Calm Calm - N/A   Clear
10:53 PM 55.0 °F 48.0 °F 77% 30.19 in 10.0 mi Calm Calm - N/A   Clear
11:53 PM 52.0 °F 46.9 °F 83% 30.19 in 10.0 mi Calm Calm - N/A   Clear